Regional Weather Roundup
Issued by NWS

Home | Current Version | Previous Version | Text Only | Print | Product List | Glossary Off
Versions: 1 2 3 4 5 6 7 8 9 10 11 12 13 14 15 16 17 18 19 20 21 22 23 24 25 26 27 28 29 30 31 32 33 34 35 36 37 38 39 40 41 42 43 44 45 46 47 48 49 50

000
ASUS43 KFSD 030002
RWRSD

WEATHER ROUNDUP FOR SOUTH DAKOTA
NATIONAL WEATHER SERVICE SIOUX FALLS SD
600 PM CST MON MAR 02 2015

NOTE: "FAIR" INDICATES FEW OR NO CLOUDS BELOW 12,000 FEET WITH NO
SIGNIFICANT WEATHER AND/OR OBSTRUCTIONS TO VISIBILITY.


SDZ001>005-009-010-012>017-030100-
NORTHWEST AND NORTH CENTRAL SOUTH DAKOTA

CITY           SKY/WX    TMP DP  RH WIND       PRES   REMARKS
BUFFALO          N/A     40  13  33 NW10      29.65S
FAITH            N/A     45  18  34 NW3       29.70F
MOBRIDGE       MOCLDY    42  22  44 S13       29.72F
$$

SDZ012>016-024>037-041>051-057-063-072>074-030100-
SOUTHWEST AND SOUTH CENTRAL SOUTH DAKOTA

CITY           SKY/WX    TMP DP  RH WIND       PRES   REMARKS
RAPID CTY ARPT MOCLDY    43  26  51 N9        29.68F
PIERRE         MOCLDY    42  12  29 S16       29.79F
CUSTER         CLOUDY    37  21  52 CALM      29.64F
ELLSWORTH AFB  MOCLDY    43  21  40 N10       29.68F
PHILIP         CLOUDY    45  17  32 S9        29.72F
PINE RIDGE     CLOUDY    40  22  48 S12       29.70F
SPEARFISH      FAIR      37  23  56 S5        29.71F
WINNER         MOCLDY    42  12  29 S17       29.82F
$$

SDZ004>011-016>023-039-040-030100-
NORTHEAST SOUTH DAKOTA

CITY           SKY/WX    TMP DP  RH WIND       PRES   REMARKS
ABERDEEN       MOCLDY    30  19  63 S25G31    29.89F WCI  16
WATERTOWN      CLOUDY    25  17  72 S21G28    29.95F WCI  11
SISSETON         N/A     29  19  66 S21       29.96F WCI  16
$$

SDZ017-020-022-023-036>040-048>070-030100-
SOUTHEAST SOUTH DAKOTA

CITY           SKY/WX    TMP DP  RH WIND       PRES   REMARKS
SIOUX FALLS    CLOUDY    30  19  63 SE17G24   30.04F WCI  18
HURON          CLOUDY    33  19  56 SE17G28   29.91F WCI  22
MITCHELL       CLOUDY    35  18  49 SE20      29.96F WCI  24
YANKTON        CLOUDY    39  18  41 S18G24    30.02F
$$

ABBREVIATIONS USED IN REMARKS
   TC - TEMPERATURE IN CELSIUS
  WCI - WIND CHILL INDEX
   HX - HEAT INDEX
  VSB - VISIBILITY




USA.gov is the U.S. government's official web portal to all federal, state and local government web resources and services.